| time (UTC) | temp F | wind direction | speed knots | gust knots | rain 1hr in | rain 24hr in | rain mn in | humidity % | barometer mb |
| 20260504080907 | 81 | 247 | 0.0 | 3.5 | 0.00 | 0.00 | 0.00 | 35 | 1003.2 |
| 20260504045407 | 61 | 270 | 1.7 | 4.3 | 0.00 | 0.00 | 0.00 | 55 | 1002.6 |
| 20260504043907 | 60 | 225 | 2.6 | 3.5 | 0.00 | 0.00 | 0.00 | 56 | 1002.5 |
| 20260504042407 | 60 | 225 | 6.1 | 6.1 | 0.00 | 0.00 | 0.00 | 57 | 1002.5 |
| 20260504040907 | 59 | 247 | 1.7 | 3.5 | 0.00 | 0.00 | 0.00 | 57 | 1002.5 |
| 20260504035407 | 58 | 225 | 3.5 | 3.5 | 0.00 | 0.00 | 0.00 | 57 | 1002.5 |
| 20260504033907 | 58 | 247 | 1.7 | 5.2 | 0.00 | 0.00 | 0.00 | 58 | 1002.7 |
| 20260504032407 | 57 | 157 | 1.7 | 3.5 | 0.00 | 0.00 | 0.00 | 59 | 1002.7 |
| 20260504030907 | 56 | 180 | 0.0 | 0.0 | 0.00 | 0.00 | 0.00 | 61 | 1002.6 |
| 20260504025407 | 55 | 247 | 1.7 | 1.7 | 0.00 | 0.00 | 0.00 | 61 | 1002.6 |
| 20260504023907 | 55 | 315 | 0.0 | 0.0 | 0.00 | 0.00 | 0.00 | 61 | 1002.6 |
| 20260504022407 | 55 | 247 | 0.0 | 0.0 | 0.00 | 0.00 | 0.00 | 60 | 1002.6 |
| 20260504020907 | 55 | 247 | 0.0 | 0.0 | 0.00 | 0.00 | 0.00 | 59 | 1002.7 |
| 20260504015407 | 55 | 247 | 0.9 | 0.9 | 0.00 | 0.00 | 0.00 | 58 | 1002.8 |
| 20260504013907 | 56 | 225 | 0.0 | 0.0 | 0.00 | 0.00 | 0.00 | 58 | 1002.8 |
| 20260504012407 | 55 | 225 | 0.0 | 0.0 | 0.00 | 0.00 | 0.00 | 57 | 1003.0 |
| 20260504010907 | 56 | 90 | 0.0 | 0.0 | 0.00 | 0.00 | 0.00 | 56 | 1003.0 |
| 20260504005407 | 56 | 225 | 0.0 | 0.0 | 0.00 | 0.00 | 0.00 | 56 | 1003.1 |
| 20260504003907 | 56 | 202 | 0.0 | 0.0 | 0.00 | 0.00 | 0.00 | 55 | 1003.0 |
| 20260504002407 | 55 | 157 | 0.0 | 0.0 | 0.00 | 0.00 | 0.00 | 55 | 1003.1 |
| 20260504000907 | 55 | 225 | 0.0 | 0.0 | 0.00 | 0.00 | 0.00 | 55 | 1003.1 |
| 20260503235407 | 55 | 112 | 0.0 | 0.0 | 0.00 | 0.00 | 0.00 | 53 | 1003.3 |
| 20260503233907 | 56 | 225 | 0.0 | 0.0 | 0.00 | 0.00 | 0.00 | 53 | 1003.3 |
| 20260503232407 | 57 | 270 | 0.0 | 0.0 | 0.00 | 0.00 | 0.00 | 53 | 1003.3 |
| 20260503230907 | 57 | 225 | 0.0 | 0.0 | 0.00 | 0.00 | 0.00 | 52 | 1003.5 |
| 20260503225407 | 57 | 225 | 0.0 | 0.0 | 0.00 | 0.00 | 0.00 | 51 | 1003.5 |
| 20260503223907 | 57 | 225 | 0.0 | 0.0 | 0.00 | 0.00 | 0.00 | 50 | 1003.5 |
| 20260503222407 | 57 | 225 | 0.0 | 0.0 | 0.00 | 0.00 | 0.00 | 49 | 1003.6 |
| 20260503220907 | 57 | 225 | 0.0 | 0.0 | 0.00 | 0.00 | 0.00 | 49 | 1003.5 |
| 20260503215407 | 58 | 225 | 0.0 | 0.0 | 0.00 | 0.00 | 0.00 | 48 | 1003.7 |
| 20260503213908 | 59 | 225 | 0.0 | 0.0 | 0.00 | 0.00 | 0.00 | 48 | 1003.5 |
| 20260503212408 | 60 | 225 | 0.0 | 2.6 | 0.00 | 0.00 | 0.00 | 47 | 1003.6 |
| 20260503210908 | 60 | 247 | 0.0 | 0.0 | 0.00 | 0.00 | 0.00 | 47 | 1003.5 |
| 20260503205408 | 61 | 180 | 0.0 | 0.9 | 0.00 | 0.00 | 0.00 | 46 | 1003.4 |
| 20260503203908 | 61 | 270 | 0.0 | 0.0 | 0.00 | 0.00 | 0.00 | 46 | 1003.5 |
| 20260503202408 | 62 | 247 | 0.0 | 0.0 | 0.00 | 0.00 | 0.00 | 45 | 1003.5 |
| 20260503200908 | 63 | 202 | 0.0 | 0.0 | 0.00 | 0.00 | 0.00 | 44 | 1003.7 |
| 20260503195408 | 64 | 225 | 0.0 | 0.0 | 0.00 | 0.00 | 0.00 | 45 | 1003.6 |
| 20260503193908 | 64 | 270 | 0.0 | 0.0 | 0.00 | 0.00 | 0.00 | 43 | 1003.8 |
| 20260503192408 | 64 | 270 | 0.0 | 0.0 | 0.00 | 0.00 | 0.00 | 44 | 1003.7 |
| 20260503190908 | 64 | 0 | 0.0 | 0.0 | 0.00 | 0.00 | 0.00 | 44 | 1003.4 |
| 20260503185408 | 64 | 225 | 0.0 | 0.0 | 0.00 | 0.00 | 0.00 | 42 | 1003.5 |
| 20260503183908 | 65 | 135 | 0.0 | 0.0 | 0.00 | 0.00 | 0.00 | 40 | 1003.4 |
| 20260503182408 | 67 | 135 | 0.0 | 0.0 | 0.00 | 0.00 | 0.00 | 37 | 1003.4 |
| 20260503180908 | 69 | 135 | 0.0 | 0.0 | 0.00 | 0.00 | 0.00 | 34 | 1003.2 |
| 20260503175408 | 73 | 202 | 0.0 | 0.0 | 0.00 | 0.00 | 0.00 | 32 | 1003.2 |
| 20260503173908 | 76 | 112 | 0.0 | 0.9 | 0.00 | 0.00 | 0.00 | 30 | 1003.2 |
| 20260503172408 | 78 | 180 | 0.0 | 1.7 | 0.00 | 0.00 | 0.00 | 30 | 1003.2 |
| 20260503170908 | 80 | 45 | 0.0 | 0.0 | 0.00 | 0.00 | 0.00 | 28 | 1003.2 |
| 20260503150908 | 88 | 247 | 7.0 | 7.0 | 0.00 | 0.00 | 0.00 | 24 | 1004.2 |
| 20260503130908 | 83 | 270 | 0.0 | 5.2 | 0.00 | 0.00 | 0.00 | 26 | 1005.6 |